Hourly Data Report for October 06, 2017

All times are specified in Local Standard Time (LST). Add 1 hour to adjust for Daylight Saving Time where and when it is observed.

KLEEFELD (MAFRI)
MANITOBA

49°31'04.000" N
96°54'04.000" W
246.50 m
5021500
71646
PTG

Download Data

Hourly Data (October 2017)
Hourly Data Report for October 6, 2017
Temp Definition
°C
Dew Point Temp Definition
°C
Rel Hum Definition
%
Wind Dir Definition
10's deg

Wind Spd Definition
km/h
Visibility Definition
km
Stn Press Definition
kPa
Hmdx Definition


Wind Chill Definition


Weather Definition


TIME
00:00 1.1 -1.7 82 18 9   98.80     LegendNANA
01:00 0.8 -1.4 86 20 10   98.80     LegendNANA
02:00 1.7 -0.6 85 19 11   98.77     LegendNANA
03:00 1.5 -0.4 87 18 10   98.71     LegendNANA
04:00 1.3 -0.5 88 18 7   98.66     LegendNANA
05:00 1.2 -0.6 88 18 8   98.61     LegendNANA
06:00 2.0 0.0 87 18 11   98.59     LegendNANA
07:00 3.9 1.3 83 19 14   98.54     LegendNANA
08:00 6.3 2.6 77 18 12   98.47     LegendNANA
09:00 8.9 3.1 67 19 16   98.41     LegendNANA
10:00 11.8 3.1 55 19 19   98.34     LegendNANA
11:00 14.2 2.5 45 19 25   98.29     LegendNANA
12:00 15.7 2.4 41 19 25   98.16     LegendNANA
13:00 16.7 2.6 39 19 26   98.03     LegendNANA
14:00 17.2 2.3 37 20 28   97.87     LegendNANA
15:00 17.9 1.8 34 21 26   97.74     LegendNANA
16:00 17.2 3.4 40 18 20   97.66     LegendNANA
17:00 16.1 3.4 43 18 19   97.58     LegendNANA
18:00 14.4 3.4 48 17 13   97.51     LegendNANA
19:00 12.9 3.9 54 17 13   97.45     LegendNANA
20:00 12.0 4.3 59 17 14   97.38     LegendNANA
21:00 11.9 4.1 59 17 17   97.31     LegendNANA
22:00 11.5 3.9 59 17 18   97.23     LegendNANA
23:00 11.0 3.9 62 18 19   97.12     LegendNANA

Notes on Data Quality.

Legend

  • E = Estimated
  • M = Missing
  • NA = Not Available
  • ‡ = Partner data that is not subject to review by the National Climate Archives
Date modified: